• Processing (Info)

  • MPEC 2013-T56 : 2013 TF6

    The following Minor Planet Electronic Circular may be linked-to from your own Web pages, but must not otherwise be redistributed electronically.

    A form allowing access to any MPEC is at the bottom of this page.


    Read MPEC 2013-T55 Read MPEC 2013-T57


    M.P.E.C. 2013-T56                                Issued 2013 Oct. 7, 01:18 UT
    
         The Minor Planet Electronic Circulars contain information on unusual
             minor planets and routine data on comets.  They are published
       on behalf of Commission 20 of the International Astronomical Union by the
              Minor Planet Center, Smithsonian Astrophysical Observatory,
                              Cambridge, MA 02138, U.S.A.
    
                 Prepared using the Tamkin Foundation Computer Network
    
                                  MPC@CFA.HARVARD.EDU
                URL http://www.minorplanetcenter.net/    ISSN 1523-6714
    
                                       2013 TF6
    
    Observations:
         K13T06F* C2013 10 04.45181 01 01 08.55 +19 44 03.2          20.6 VqET056G96
         K13T06F  C2013 10 04.46301 01 01 07.12 +19 43 21.9          20.6 VqET056G96
         K13T06F  C2013 10 04.47429 01 01 05.74 +19 42 41.5          20.3 VqET056G96
         K13T06F  C2013 10 04.48554 01 01 04.30 +19 41 59.6          20.8 VqET056G96
         K13T06F KC2013 10 05.28792500 59 28.77 +18 53 44.7          22.2 VqET056V37
         K13T06F KC2013 10 05.29409200 59 27.94 +18 53 22.5          21.7 VqET056V37
         K13T06F KC2013 10 05.30030300 59 27.17 +18 53 00.3          21.5 VqET056V37
         K13T06F  C2013 10 05.35801 00 59 19.94 +18 49 30.9          20.9 VqET056G96
         K13T06F  C2013 10 05.36057 00 59 19.61 +18 49 22.2          21.3 VqET056G96
         K13T06F  C2013 10 05.36185 00 59 19.54 +18 49 16.9          22.8 VqET056G96
         K13T06F  C2013 10 05.36311 00 59 19.34 +18 49 11.7          22.2 VqET056G96
         K13T06F  C2013 10 06.32515 00 57 25.87 +17 51 33.3          20.8 VqET056G96
         K13T06F  C2013 10 06.32644 00 57 25.65 +17 51 28.4          20.9 VqET056G96
         K13T06F  C2013 10 06.32773 00 57 25.45 +17 51 23.7          20.7 VqET056G96
         K13T06F  C2013 10 06.32902 00 57 25.30 +17 51 19.3          21.1 VqET056G96
         K13T06F  C2013 10 06.33032 00 57 25.15 +17 51 14.5          21.1 VqET056G96
         K13T06F  C2013 10 06.33601 00 57 24.47 +17 50 54.7          20.8 RoET056926
         K13T06F  C2013 10 06.34157 00 57 23.76 +17 50 34.5          20.6 RoET056926
         K13T06F  C2013 10 06.34712 00 57 23.07 +17 50 14.8          20.8 RoET056926
    
    Observer details:
    926 Tenagra II Observatory.  Observers M. Schwartz, P. R. Holvorcem.  0.81-m
        f/7 Ritchey-Chretien + CCD.
    G96 Mt. Lemmon Survey.  Observers J. A. Johnson, R. E. Hill.  Measurers
        A. Boattini, E. J. Christensen, A. R. Gibbs, A. D. Grauer, R. E. Hill,
        J. A. Johnson, R. A. Kowalski, S. M. Larson, F. C. Shelly.  1.5-m
        reflector + CCD.
    V37 McDonald Observatory-LCOGT ELP.  Observer T. Lister.  1.0-m f/8
        Ritchey-Chretien + CCD.
    
    Orbital elements:
    2013 TF6                                                 Earth MOID = 0.1366 AU
    Epoch 2013 Nov. 4.0 TT = JDT 2456600.5                  MPC
    M 120.18515              (2000.0)            P               Q
    n   0.75008410     Peri.   39.32895     -0.48127835     +0.86576308
    a   1.1996726      Node   202.93101     -0.86650784     -0.49353671
    e   0.3329641      Incl.   20.61892     -0.13242093     +0.08292044
    P   1.31           H   21.9           G   0.15           U   9
    Residuals in seconds of arc
    131004 G96  0.4-  0.2+    131005 G96  0.0   0.1-    131006 G96  0.5-  0.1+
    131004 G96  0.5-  0.2-    131005 G96  0.0   0.4+    131006 G96  0.3-  0.1-
    131004 G96  0.2+  0.6+    131005 G96  1.3+  0.2-    131006 926  0.2+  0.2+
    131004 G96  0.1-  0.2-    131005 G96  0.7+  0.9-    131006 926  0.0   0.0
    131005 V37  0.1+  0.1-    131006 G96  0.7+  0.2+    131006 926  0.1+  0.2+
    131005 V37  0.4-  0.0     131006 G96  0.1-  0.1-
    131005 V37  0.0   0.2+    131006 G96  0.7-  0.2-
    
    Ephemeris:
    2013 TF6                 a,e,i = 1.20, 0.33, 21                  q = 0.8002
    Date    TT    R. A. (2000) Decl.     Delta      r     Elong.  Phase     V
    2013 09 07    01 57 25.4 +42 53 31   0.3967  1.2391   116.9    46.5    22.1
    ...
    2013 09 22    01 28 08.8 +31 50 36   0.3688  1.3114   141.1    28.7    21.6
    ...
    2013 09 30    01 10 31.2 +24 12 38   0.3694  1.3471   155.8    17.7    21.3
    ...
    2013 10 06    00 58 04.3 +18 11 09   0.3802  1.3725   166.6     9.8    21.1
    2013 10 07    00 56 07.8 +17 11 28   0.3830  1.3766   168.1     8.6    21.1
    2013 10 08    00 54 14.1 +16 12 17   0.3860  1.3806   169.6     7.5    21.1
    ...
    2013 10 14    00 43 59.4 +10 33 35   0.4099  1.4043   171.7     5.9    21.2
    ...
    2013 10 22    00 33 42.1 +04 07 14   0.4561  1.4338   160.8    13.2    21.7
    ...
    2013 11 06    00 24 53.3 -03 57 42   0.5786  1.4828   140.2    25.3    22.7
    
    A. U. Tomatic                (C) Copyright 2013 MPC           M.P.E.C. 2013-T56
    

    Read MPEC 2013-T55 Read MPEC 2013-T57


    MPEC number:

    Enter an MPEC number in one of the following forms:

    • 1997-B01 (the full form)
    • J97B01 (the packed version of the full form)
    • B01 (the abbreviated form)